Weather History for Santa Ynez, CA

Change the Weather History Date:

Thursday, January 10, 2013

  Actual Average (KSBA) Record (KSBA)
Temperature  
Mean Temperature 43 °F 52 °F  
Max Temperature 51 °F 63 °F 75 °F (1990)
Min Temperature 35 °F 40 °F 26 °F (1949)
Degree Days  
Heating Degree Days 22 13  
Month to date heating degree days 130  
Since 1 July heating degree days 1014  
Cooling Degree Days 0 0  
Month to date cooling degree days 0  
Year to date cooling degree days 0  
Moisture  
Dew Point 34 °F    
Average Humidity 70    
Maximum Humidity 93    
Minimum Humidity 47    
Precipitation  
Precipitation 0.06 in 0.12 in 3.98 in (2001)
Month to date precipitation 1.17  
Year to date precipitation 1.17  
Since 1 July precipitation 6.88  
Sea Level Pressure  
Sea Level Pressure 30.06 in    
Wind  
Wind Speed 9 mph (NW)    
Max Wind Speed 22 mph    
Max Gust Speed 28 mph    
Visibility 10 miles    
Events Rain    
T = Trace of Precipitation, MM = Missing Value Source: NWS Daily Summary

Daily Weather History Graph

Daily Weather History Graph

Search for Another Location

Airport:

Trip Planner

Search our weather history database for the weather conditions in past years. The results will help you decide how hot, cold, wet, or windy it might be!

Date:

Astronomy

Jan. 10, 2013 Rise Set
Actual Time 7:07 AM PST 5:08 PM PST
Civil Twilight 6:40 AM PST 5:36 PM PST
Nautical Twilight 6:09 AM PST 6:07 PM PST
Astronomical Twilight 5:38 AM PST 6:37 PM PST
Moon 5:52 AM PST (1/10) 4:21 PM PST (1/10)
Length of Visible Light 10h 55m
Length of Day
10h 00m
Waning Crescent, 1% of the Moon is Illuminated
Jan 10
Waning Crescent
Jan 11
New
Jan 18
First Quarter
Jan 26
Full
Feb 3
Last Quarter

Hourly Weather History & Observations

Time (PST) Temp. Windchill Dew Point Humidity Pressure Visibility Wind Dir Wind Speed Gust Speed Precip Events Conditions
12:15 AM 48.2 °F - 44.6 °F 87% 30.05 in 5.0 mi NW 8.1 mph 17.3 mph N/A   Overcast
12:35 AM 46.4 °F 40.7 °F 44.6 °F 93% 30.05 in 7.0 mi WNW 12.7 mph - N/A   Overcast
12:55 AM 46.4 °F 41.5 °F 42.8 °F 87% 30.06 in 7.0 mi WNW 10.4 mph 18.4 mph N/A   Overcast
1:15 AM 46.4 °F 44.3 °F 42.8 °F 87% 30.05 in 10.0 mi NW 4.6 mph - N/A   Overcast
1:35 AM 46.4 °F 42.9 °F 41.0 °F 81% 30.05 in 10.0 mi WNW 6.9 mph - N/A   Overcast
1:55 AM 46.4 °F 42.9 °F 41.0 °F 81% 30.05 in 10.0 mi NW 6.9 mph - N/A   Overcast
2:15 AM 44.6 °F 42.2 °F 39.2 °F 81% 30.05 in 10.0 mi West 4.6 mph - N/A   Overcast
2:35 AM 42.8 °F 40.1 °F 37.4 °F 81% 30.04 in 10.0 mi West 4.6 mph - N/A   Scattered Clouds
2:55 AM 44.6 °F 43.1 °F 35.6 °F 71% 30.04 in 10.0 mi WNW 3.5 mph - N/A   Clear
3:15 AM 44.6 °F 42.2 °F 35.6 °F 71% 30.03 in 10.0 mi WNW 4.6 mph - N/A   Clear
3:35 AM 42.8 °F 41.1 °F 35.6 °F 76% 30.03 in 10.0 mi NNW 3.5 mph - N/A   Clear
3:55 AM 42.8 °F 41.1 °F 35.6 °F 76% 30.03 in 10.0 mi NNW 3.5 mph - N/A   Clear
4:15 AM 42.8 °F 38.0 °F 35.6 °F 76% 30.03 in 10.0 mi NNW 8.1 mph - N/A   Clear
4:35 AM 42.8 °F 37.5 °F 33.8 °F 70% 30.02 in 10.0 mi NNW 9.2 mph - N/A   Clear
4:55 AM 42.8 °F 37.5 °F 33.8 °F 70% 30.03 in 10.0 mi NNW 9.2 mph - N/A   Clear
5:15 AM 41.0 °F 35.8 °F 33.8 °F 76% 30.03 in 10.0 mi NNW 8.1 mph - N/A   Clear
5:35 AM 41.0 °F 39.0 °F 32.0 °F 70% 30.03 in 10.0 mi NNW 3.5 mph - N/A   Clear
5:55 AM 41.0 °F 36.4 °F 32.0 °F 70% 30.03 in 10.0 mi NNW 6.9 mph - N/A   Clear
6:15 AM 41.0 °F 37.1 °F 32.0 °F 70% 30.04 in 10.0 mi NNW 5.8 mph - N/A   Clear
6:35 AM 41.0 °F 37.1 °F 32.0 °F 70% 30.04 in 10.0 mi NNW 5.8 mph - N/A   Clear
6:55 AM 41.0 °F 34.7 °F 32.0 °F 70% 30.05 in 10.0 mi NNW 10.4 mph 17.3 mph N/A   Clear
7:15 AM 41.0 °F 35.8 °F 32.0 °F 70% 30.05 in 10.0 mi NW 8.1 mph - N/A   Clear
7:35 AM 41.0 °F 35.2 °F 32.0 °F 70% 30.06 in 10.0 mi NNW 9.2 mph - N/A   Clear
7:55 AM 42.8 °F 36.6 °F 32.0 °F 66% 30.06 in 10.0 mi NNW 11.5 mph - N/A   Clear
8:15 AM 42.8 °F 37.0 °F 30.2 °F 61% 30.07 in 10.0 mi NNW 10.4 mph 17.3 mph N/A   Clear
8:35 AM 42.8 °F 37.5 °F 30.2 °F 61% 30.08 in 10.0 mi NW 9.2 mph - N/A   Clear
8:55 AM 44.6 °F 40.2 °F 32.0 °F 61% 30.08 in 10.0 mi NW 8.1 mph - N/A   Clear
9:15 AM 44.6 °F 38.1 °F 32.0 °F 61% 30.08 in 10.0 mi NW 13.8 mph - N/A   Clear
9:35 AM 46.4 °F 40.4 °F 32.0 °F 57% 30.08 in 10.0 mi NNW 13.8 mph 17.3 mph N/A   Clear
10:15 AM 48.2 °F - 30.2 °F 50% 30.08 in 10.0 mi North 10.4 mph 23.0 mph N/A   Clear
10:35 AM 48.2 °F - 30.2 °F 50% 30.07 in 10.0 mi NNW 11.5 mph 20.7 mph N/A   Clear
10:55 AM 50.0 °F - 32.0 °F 50% 30.06 in 10.0 mi NNW 12.7 mph 18.4 mph N/A   Clear
11:15 AM 50.0 °F - 32.0 °F 50% 30.06 in 10.0 mi NW 17.3 mph 25.3 mph N/A   Clear
11:35 AM 50.0 °F - 32.0 °F 50% 30.05 in 10.0 mi NNW 18.4 mph 24.2 mph N/A   Scattered Clouds
11:55 AM 50.0 °F - 32.0 °F 50% 30.05 in 10.0 mi NNW 16.1 mph 21.9 mph N/A   Scattered Clouds
12:15 PM 50.0 °F - 32.0 °F 50% 30.03 in 10.0 mi NNW 13.8 mph 21.9 mph N/A   Scattered Clouds
12:35 PM 50.0 °F - 30.2 °F 47% 30.03 in 10.0 mi NNW 16.1 mph 19.6 mph N/A   Scattered Clouds
12:55 PM 50.0 °F - 32.0 °F 50% 30.02 in 10.0 mi NW 21.9 mph 27.6 mph N/A   Scattered Clouds
1:15 PM 50.0 °F - 32.0 °F 50% 30.02 in 10.0 mi NW 16.1 mph 27.6 mph N/A   Scattered Clouds
1:35 PM 50.0 °F - 32.0 °F 50% 30.02 in 10.0 mi NNW 15.0 mph 21.9 mph N/A   Scattered Clouds
1:55 PM 50.0 °F - 32.0 °F 50% 30.02 in 10.0 mi WNW 18.4 mph 24.2 mph N/A   Scattered Clouds
2:15 PM 51.8 °F - 33.8 °F 50% 30.02 in 10.0 mi NW 13.8 mph 20.7 mph N/A   Mostly Cloudy
2:35 PM 50.0 °F - 33.8 °F 54% 30.02 in 10.0 mi NNW 13.8 mph 19.6 mph N/A   Mostly Cloudy
2:55 PM 50.0 °F - 32.0 °F 50% 30.03 in 10.0 mi WNW 20.7 mph 25.3 mph N/A   Overcast
3:15 PM 50.0 °F - 33.8 °F 54% 30.03 in 10.0 mi NNW 17.3 mph 24.2 mph N/A   Overcast
3:35 PM 46.4 °F 40.4 °F 33.8 °F 62% 30.04 in 5.0 mi NNW 13.8 mph 26.5 mph N/A Rain Light Rain
3:55 PM 48.2 °F - 35.6 °F 62% 30.04 in 10.0 mi NW 18.4 mph 24.2 mph N/A   Overcast
4:15 PM 44.6 °F 38.1 °F 33.8 °F 66% 30.05 in 10.0 mi North 13.8 mph 19.6 mph N/A Rain Light Rain
4:35 PM 42.8 °F 37.0 °F 35.6 °F 76% 30.05 in 7.0 mi North 10.4 mph 18.4 mph 0.02 in Rain Rain
4:55 PM 41.0 °F 35.8 °F 33.8 °F 76% 30.05 in 10.0 mi NW 8.1 mph - 0.05 in Rain Light Rain
5:15 PM 41.0 °F 37.1 °F 35.6 °F 81% 30.05 in 10.0 mi NNW 5.8 mph - 0.01 in Rain Rain
5:35 PM 41.0 °F 36.4 °F 35.6 °F 81% 30.05 in 10.0 mi NW 6.9 mph - 0.01 in Rain Light Rain
5:55 PM 41.0 °F 39.0 °F 33.8 °F 76% 30.06 in 10.0 mi NW 3.5 mph - 0.01 in   Scattered Clouds
6:15 PM 41.0 °F - 33.8 °F 76% 30.07 in 10.0 mi Calm Calm - N/A   Clear
6:35 PM 41.0 °F - 33.8 °F 76% 30.08 in 10.0 mi Calm Calm - N/A   Clear
6:55 PM 41.0 °F 39.0 °F 33.8 °F 76% 30.08 in 10.0 mi WNW 3.5 mph - N/A   Clear
7:15 PM 37.4 °F 33.8 °F 33.8 °F 87% 30.09 in 10.0 mi West 4.6 mph - N/A   Clear
7:35 PM 37.4 °F 33.8 °F 33.8 °F 87% 30.10 in 10.0 mi WNW 4.6 mph - N/A   Clear
7:55 PM 39.2 °F 34.2 °F 33.8 °F 81% 30.11 in 10.0 mi NNW 6.9 mph - N/A   Clear
8:15 PM 41.0 °F 36.4 °F 33.8 °F 76% 30.11 in 10.0 mi NNW 6.9 mph - N/A   Clear
8:35 PM 39.2 °F 35.9 °F 33.8 °F 81% 30.12 in 10.0 mi NNW 4.6 mph - N/A   Clear
8:55 PM 39.2 °F 35.9 °F 33.8 °F 81% 30.13 in 10.0 mi NNW 4.6 mph - N/A   Clear
9:15 PM 39.2 °F 37.0 °F 33.8 °F 81% 30.13 in 10.0 mi NNW 3.5 mph - N/A   Clear
9:35 PM 37.4 °F 33.8 °F 32.0 °F 81% 30.14 in 10.0 mi NW 4.6 mph - N/A   Clear
9:55 PM 37.4 °F 32.8 °F 32.0 °F 81% 30.14 in 10.0 mi NNW 5.8 mph - N/A   Clear
10:15 PM 37.4 °F 34.9 °F 32.0 °F 81% 30.15 in 10.0 mi NNW 3.5 mph - N/A   Clear
10:35 PM 37.4 °F 34.9 °F 32.0 °F 81% 30.16 in 10.0 mi WNW 3.5 mph - N/A   Clear
10:55 PM 35.6 °F - 32.0 °F 87% 30.16 in 10.0 mi Calm Calm - N/A   Clear
11:15 PM 37.4 °F 33.8 °F 32.0 °F 81% 30.15 in 10.0 mi NW 4.6 mph - N/A   Clear
11:35 PM 37.4 °F 30.3 °F 32.0 °F 81% 30.15 in 10.0 mi WNW 10.4 mph - N/A   Clear
11:55 PM 37.4 °F 32.1 °F 32.0 °F 81% 30.15 in 10.0 mi NW 6.9 mph - N/A   Clear